This is the latest recevied weather packets stored in our database for station/object R2AKT-13. If no packets are shown the sender has not sent any weather packets the latest 10 day(s).
| Time | Temp. | Humidity | Pressure | Rain* | Wind** | Luminosity | Snow |
|---|---|---|---|---|---|---|---|
| 1788325889 | 17.78° C | 77% | 986.9 hPa | - | 0.45 m/s, 199° | - | - |
| 1788325361 | 17.22° C | 78% | 987 hPa | - | 0.45 m/s, 167° | - | - |
| 1788324841 | 17.22° C | 79% | 986.9 hPa | - | 0.45 m/s, 227° | - | - |
| 1788324285 | 17.22° C | 80% | 986.9 hPa | - | 0.45 m/s, 259° | - | - |
| 1788323756 | 17.22° C | 81% | 987 hPa | - | 0.89 m/s, 223° | - | - |
| 1788323236 | 17.22° C | 82% | 987.1 hPa | - | 0.89 m/s, 237° | - | - |
| 1788322721 | 17.22° C | 83% | 987 hPa | - | 0.89 m/s, 201° | - | - |
| 1788322225 | 16.67° C | 84% | 987 hPa | - | 0.89 m/s, 193° | - | - |
| 1788321656 | 16.67° C | 85% | 987.1 hPa | - | 0.45 m/s, 218° | - | - |
| 1788321116 | 16.67° C | 86% | 987 hPa | - | 0.45 m/s, 172° | - | - |
| 1788320585 | 16.67° C | 86% | 986.9 hPa | - | 1.79 m/s, 213° | - | - |
| 1788319996 | 16.67° C | 86% | 986.8 hPa | - | 0.45 m/s, 205° | - | - |
| 1788319511 | 16.11° C | 87% | 986.8 hPa | - | 1.34 m/s, 206° | - | - |
| 1788318936 | 16.11° C | 87% | 987 hPa | - | 0.45 m/s, 182° | - | - |
| 1788318451 | 16.11° C | 87% | 986.8 hPa | - | 1.34 m/s, 197° | - | - |
| 1788317876 | 16.11° C | 87% | 986.8 hPa | - | 0.45 m/s, 202° | - | - |
| 1788317321 | 16.11° C | 87% | 986.7 hPa | - | 1.34 m/s, 191° | - | - |
| 1788316761 | 16.11° C | 87% | 986.7 hPa | - | 1.79 m/s, 198° | - | - |
| 1788316200 | 16.67° C | 87% | 986.8 hPa | - | 1.79 m/s, 188° | - | - |
| 1788315626 | 16.67° C | 86% | 986.8 hPa | - | 1.79 m/s, 185° | - | - |
| 1788315051 | 16.67° C | 86% | 986.8 hPa | - | 2.24 m/s, 194° | - | - |
| 1788314541 | 16.67° C | 85% | 986.8 hPa | - | 1.79 m/s, 190° | - | - |
| 1788313951 | 16.67° C | 86% | 986.8 hPa | - | 1.34 m/s, 209° | - | - |
| 1788313441 | 16.67° C | 86% | 986.7 hPa | - | 2.68 m/s, 196° | - | - |
| 1788312961 | 16.67° C | 85% | 986.7 hPa | - | 0.89 m/s, 218° | - | - |
* Rain since midnight (hover to see other rain measurements)
** Current wind speed in m/s (hover to see current wind gust speed)